Location: Home
(42.5358°N, 72.7383°W)
Time: 12:38:08
(UTC-05:00)

A-11 Canister half - Pass Details

Date: 07 December 2021
Orbit: 1516 x 1684 km, 47.2° (Epoch: 24 January)

Event Time Altitude Azimuth Distance (km) Brightness Sun altitude
Rises 04:56:27 0° 214° (SW) 4,700 11.3 -23.3°
Reaches altitude 10° 04:59:35 10° 209° (SSW) 3,738 10.8 -22.8°
Maximum altitude 05:08:33 49° 138° (SE) 1,990 9.9 -21.1°
Drops below altitude 10° 05:17:50 10° 68° (ENE) 3,878 11.9 -19.5°
Sets 05:21:09 0° 64° (ENE) 4,888 12.4 -18.9°
